Погода в Новых Салманах

Россия / Республика Татарстан     54°57′28″N   49°46′20″E
темп.,
°C
ветер,
м/с
пор.,
м/с
влажн.,
%
обл.,
%
осадки,
мм/ч
давл.,
гПа
погр.,
м
24 июля, сб
сб2400:00+18зюз345697 0.0 100571
03:00+15юз366873 0.0 1005103
06:00+16з46735 0.0 1005363
09:00+19зсз56613 0.0 1007922
12:00+21зсз565123 0.0 10071707
15:00+21сз565465 0.3 10091284
18:00+18с466388 0.2 1011919
21:00+15с48635 0.2 1013190
25 июля, вс
вс2500:00+13с33650 0.0 101537
03:00+11ссв22690 0.0 101725
06:00+14с23575 0.0 1019172
09:00+18ссз32390 0.0 1020806
12:00+20сз44350 0.0 10201797
15:00+21сз35352 0.0 10212109
18:00+19зсз23477 0.0 1021149
21:00+15сз225643 0.0 102212
26 июля, пн
пн2600:00+13зюз116160 0.0 102310
03:00+15зюз234850 0.0 102340
06:00+15зюз245538 0.0 1024138
09:00+21з454159 0.0 1023793
12:00+22зсз453646 0.0 10231845
15:00+21зсз3543100 0.0 1022361
18:00+21зсз364944 0.0 1022340
21:00+16зюз225959 0.0 102214
27 июля, вт
вт2700:00+16зюз355662 0.0 1021102
03:00+16зюз375763 0.0 1020174
06:00+17з386443 0.0 1020306
09:00+21з5749100 0.0 1019606
12:00+22зсз68495 0.1 10181420
15:00+24сз71039100 0.1 10162552
18:00+21ссз59544 0.0 10171144
21:00+16сз36701 0.0 101892
28 июля, ср
ср2800:00+14ссз34760 0.0 101858
03:00+12ссв11860 0.0 101910
06:00+15с11713 0.0 1019128
09:00+20сз23495 0.0 1018790
12:00+23сз46435 0.0 10171467
15:00+25сз36391 0.0 10151749
18:00+23з23490 0.0 1014132
21:00+19ююз45555 0.0 101366